Lid_Strength_Index
17 16 15 16 13 13 12 11 14 12 11 9 7 7 6 6 5 5 4 4 3 3 3 3 3 3 3 3 3 3 2 3 3 3 3 4 5 5 4 5 4 4 3 3
19 16 16 16 13 12 11 10 10 10 10 7 6 5 6 6 5 5 4 4 4 3 3 3 3 3 3 3 3 3 3 4 4 4 5 5 5 5 4 4 4 4 4 4
20 17 16 16 13 12 11 9 9 12 9 7 7 6 6 6 5 5 4 4 4 3 3 2 2 2 3 3 3 3 4 4 5 4 6 5 5 5 5 5 4 5 3 4
19 17 21 12 9 10 11 9 9 9 8 7 7 6 5 4 5 5 4 4 4 3 3 2 2 2 2 2 3 3 4 4 4 5 6 5 5 5 4 4 5 4 4 2
19 19 16 14 11 11 12 11 8 9 8 7 6 6 6 4 4 4 4 3 3 2 3 3 3 3 3 2 3 4 4 4 4 4 6 5 5 5 4 5 5 4 3 2
18 20 20 13 9 7 8 13 8 9 8 8 7 10 8 5 4 4 3 3 3 3 3 4 4 4 3 3 4 5 4 4 5 5 6 6 5 5 4 5 5 3 5 5
17 17 15 10 8 7 15 12 8 8 8 7 8 7 6 4 4 3 2 3 2 4 5 5 4 4 4 4 5 5 5 5 6 6 7 6 5 5 5 6 5 5 5 6
15 17 18 7 9 12 9 7 7 7 7 7 6 6 5 4 4 3 3 3 4 5 5 5 4 4 5 5 5 5 5 6 6 7 6 5 5 6 6 4 5 6 7 7
13 12 8 7 8 6 5 6 6 6 6 6 7 6 5 5 4 4 4 4 5 5 5 4 4 5 6 5 5 5 6 7 7 6 6 6 6 6 5 5 6 7 8 9
12 9 8 7 6 5 5 5 5 5 6 6 6 5 5 4 5 4 4 5 5 5 5 5 4 5 5 5 5 6 7 7 7 7 6 7 6 5 5 6 7 8 9 9
9 7 7 6 5 5 4 4 5 5 5 6 5 5 5 5 5 4 5 5 5 5 5 5 5 6 5 5 5 6 7 7 6 6 7 8 6 5 6 6 7 8 9 9
11 7 7 6 4 4 5 5 5 5 6 5 5 5 5 5 4 5 6 5 5 5 5 5 6 6 6 5 5 6 7 7 6 7 8 7 6 6 5 6 7 7 7 8
7 5 6 5 4 3 5 5 5 5 5 5 5 5 5 5 4 5 6 5 5 5 5 6 6 6 5 4 4 5 6 7 9 9 7 8 8 8 9 8 7 7 7 7
4 5 7 5 5 5 5 5 5 5 5 5 5 4 5 4 4 6 6 5 4 5 6 6 6 6 4 5 5 6 8 8 8 7 8 8 9 9 9 10 10 10 8 8
5 5 6 5 5 5 4 5 6 6 5 5 4 5 4 5 6 6 5 5 5 6 6 6 6 5 4 5 7 8 8 7 7 7 8 9 9 9 10 10 10 11 10 9
5 6 5 5 5 5 5 6 6 6 5 5 5 5 4 5 6 6 5 5 6 7 6 7 7 6 5 6 7 6 6 7 8 8 9 9 9 10 10 11 10 10 10 9
7 7 7 7 7 7 7 6 6 6 5 5 5 4 4 5 6 7 6 6 6 7 6 7 6 6 5 6 5 6 7 7 7 8 9 9 10 10 10 11 10 9 9 9
5 5 6 7 7 7 7 6 5 5 5 5 4 4 5 6 8 7 7 6 7 7 7 6 6 7 5 5 6 6 7 7 8 9 9 9 9 9 10 9 9 9 10 10
3 5 6 6 6 6 6 6 5 5 4 4 5 5 5 6 7 7 7 7 7 8 8 7 7 6 6 6 6 7 7 8 8 9 9 9 10 9 10 10 9 10 11 11
4 4 5 6 5 5 6 6 5 4 4 4 5 5 5 6 7 7 7 8 8 8 7 8 7 6 6 6 6 7 8 8 9 9 10 10 10 10 10 9 9 10 11 11
4 4 5 5 5 5 6 5 5 5 4 4 5 5 6 7 7 8 8 9 8 7 8 8 7 7 6 6 6 7 8 9 9 10 10 10 10 10 10 9 10 10 10 11
5 4 5 5 5 5 5 5 4 4 4 5 5 5 5 6 8 8 8 9 8 7 8 8 8 7 6 6 7 7 8 9 9 10 10 10 10 10 9 10 10 10 11 11
5 4 5 5 5 5 5 5 5 4 4 5 5 5 6 6 7 9 11 8 8 8 8 8 7 7 7 7 7 8 8 9 10 10 10 10 10 9 9 10 10 10 10 10
5 5 5 5 4 5 6 5 5 4 4 5 5 5 5 7 8 8 8 8 8 8 8 8 8 8 8 8 7 8 8 9 10 10 10 11 11 8 9 10 10 10 10 10
5 5 5 6 6 7 6 6 5 5 4 4 5 4 4 5 8 9 8 9 8 8 9 8 8 8 9 8 7 7 8 9 9 10 10 11 10 9 9 10 10 10 10 10
5 5 6 6 7 6 6 5 5 4 4 5 5 5 4 5 7 9 9 9 8 8 9 9 9 10 9 9 8 7 8 9 9 10 10 11 10 9 9 10 10 10 10 10
5 5 5 5 5 6 5 5 5 5 4 5 5 4 4 5 6 9 9 10 9 8 9 9 9 9 10 10 9 8 8 8 9 10 10 10 9 9 9 9 9 9 10 10